This is the latest recevied weather packets stored in our database for station/object IU1OPQ-3. If no packets are shown the sender has not sent any weather packets the latest 1 day(s).
| Time | Temp. | Humidity | Pressure | Rain* | Wind** | Luminosity | Snow |
|---|---|---|---|---|---|---|---|
| 1777986901 | 10.56° C | 98% | 1012.9 hPa | 0 mm | 1.34 m/s, 236° | - | - |
| 1777986000 | 10.56° C | 98% | 1012.8 hPa | 0 mm | 0.89 m/s, 245° | - | - |
| 1777985101 | 11.11° C | 98% | 1013.2 hPa | 0 mm | 1.34 m/s, 257° | - | - |
| 1777984200 | 10.56° C | 98% | 1013.1 hPa | 0 mm | 1.34 m/s, 266° | - | - |
| 1777983301 | 10° C | 99% | 1013.3 hPa | 0 mm | 0 m/s | - | - |
| 1777982400 | 10° C | 98% | 1013.4 hPa | 0 mm | 1.34 m/s, 181° | - | - |
| 1777981500 | 10° C | 98% | 1013.1 hPa | 0 mm | 0.89 m/s, 200° | - | - |
| 1777980601 | 10° C | 98% | 1013.2 hPa | 0 mm | 2.24 m/s, 262° | - | - |
| 1777979700 | 10.56° C | 99% | 1013.5 hPa | 0 mm | 1.79 m/s, 235° | - | - |
| 1777978801 | 10° C | 99% | 1013.3 hPa | 0 mm | 0.89 m/s, 214° | - | - |
| 1777977901 | 10° C | 99% | 1013.4 hPa | 0 mm | 1.34 m/s, 265° | - | - |
| 1777977000 | 10° C | 99% | 1013.3 hPa | 0 mm | 1.79 m/s, 216° | - | - |
| 1777976101 | 9.44° C | 99% | 1013.4 hPa | 0 mm | 1.34 m/s, 222° | - | - |
| 1777975200 | 9.44° C | 99% | 1013.7 hPa | 0.25 mm | 1.34 m/s, 218° | - | - |
| 1777974301 | 9.44° C | 99% | 1013.6 hPa | 0 mm | 0.89 m/s, 231° | - | - |
| 1777973400 | 8.89° C | 99% | 1013.6 hPa | 0 mm | 0.89 m/s, 213° | - | - |
| 1777972501 | 9.44° C | 99% | 1013.2 hPa | 0 mm | 1.79 m/s, 200° | - | - |
| 1777971601 | 8.89° C | 99% | 1013.4 hPa | 0 mm | 1.34 m/s, 210° | - | - |
| 1777970700 | 9.44° C | 99% | 1013.3 hPa | 0 mm | 1.79 m/s, 277° | - | - |
| 1777969801 | 8.89° C | 99% | 1013.4 hPa | 0 mm | 1.34 m/s, 226° | - | - |
| 1777968900 | 8.89° C | 99% | 1013.2 hPa | 0 mm | 0.89 m/s, 262° | - | - |
| 1777968000 | 8.89° C | 99% | 1013.2 hPa | 0 mm | 1.34 m/s, 212° | - | - |
| 1777967100 | 8.89° C | 99% | 1013.1 hPa | 0 mm | 1.34 m/s, 230° | - | - |
| 1777966200 | 8.89° C | 99% | 1013.2 hPa | 0 mm | 1.79 m/s, 226° | - | - |
| 1777965300 | 8.89° C | 99% | 1013.1 hPa | 0 mm | 0.89 m/s, 229° | - | - |
* Rain latest hour (hover to see other rain measurements)
** Current wind speed in m/s (hover to see current wind gust speed)